Printer-friendly version

IAU Minor Planet Center

Minor Planet Center

MPEC 2008-L22 : 2008 LH2

The following Minor Planet Electronic Circular may be linked-to from your own Web pages, but must not otherwise be redistributed electronically.


Read MPEC 2008-L21 Read MPEC 2008-L23


M.P.E.C. 2008-L22                                Issued 2008 June 5, 11:45 UT

     The Minor Planet Electronic Circulars contain information on unusual
         minor planets and routine data on comets.  They are published
   on behalf of Commission 20 of the International Astronomical Union by the
          Minor Planet Center, Smithsonian Astrophysical Observatory,
                          Cambridge, MA 02138, U.S.A.

             Prepared using the Tamkin Foundation Computer Network

                              MPC@CFA.HARVARD.EDU
          URL http://www.cfa.harvard.edu/iau/mpc.html  ISSN 1523-6714

                                   2008 LH2

Observations:
     K08L02H* C2008 06 04.31678 19 55 15.05 +01 37 06.9          18.3   EL022704
     K08L02H  C2008 06 04.32703 19 54 53.11 +01 37 07.9          18.3   EL022704
     K08L02H  C2008 06 04.33725 19 54 31.31 +01 37 08.0          18.7   EL022704
     K08L02H  C2008 06 04.34748 19 54 09.28 +01 37 08.6          18.2   EL022704
     K08L02H  C2008 06 04.35762 19 53 47.54 +01 37 08.6          18.4   EL022704
     K08L02H IC2008 06 05.03348 19 32 20.47 +01 35 13.4                 EL022J95
     K08L02H  C2008 06 05.03402 19 32 19.47 +01 35 13.1                 EL022J95
     K08L02H  C2008 06 05.03447 19 32 18.66 +01 35 14.0          18.5 R EL022J95
     K08L02H  C2008 06 05.30808 19 24 29.27 +01 35 58.7          18.0 R EL022854
     K08L02H  C2008 06 05.30951 19 24 26.71 +01 35 58.9          18.2 R EL022854
     K08L02H  C2008 06 05.31227 19 24 21.86 +01 35 57.5          18.1 R EL022854

Observer details:
704 Lincoln Laboratory ETS, New Mexico.  Observers M. Bezpalko, D. Torres,
    R. Kracke, G. Spitz, J. Kistler.  Measurers J. Stuart, S. Scruggs.  1.0-m
    f/2.15 reflector + CCD.
854 Sabino Canyon Observatory, Tucson.  Observer J. E. McGaha.  0.36-m f/10.0
    Schmidt-Cassegrain + CCD.
J95 Great Shefford.  Observer P. Birtwhistle.  0.40-m f/6.0 Schmidt-Cassegrain
    + CCD.

Orbital elements:
2008 LH2                                                 Earth MOID = 0.0033 AU
Epoch 2008 May 14.0 TT = JDT 2454600.5                  MPC
M  63.41873              (2000.0)            P               Q
n   1.01443099     Peri.  249.32653     -0.74975972     -0.65489838
a   0.9809670      Node   249.63304     +0.63847757     -0.67839820
e   0.2763859      Incl.    5.79776     +0.17380089     -0.33299249
P   0.97           H   24.3           G   0.15           U   8
Residuals in seconds of arc
080604 704  0.4-  0.5-    080604 704  0.7-  0.2+    080605 854  0.1-  0.1+
080604 704  0.2-  0.2+    080605 J95  0.2-  0.1-    080605 854  0.4-  0.4+
080604 704  1.3+  0.0     080605 J95  0.2-  0.4-    080605 854  0.3+  0.6-
080604 704  0.4-  0.3+    080605 J95  0.2+  0.6+

Ephemeris:
2008 LH2                 a,e,i = 0.98, 0.28, 6                   q = 0.7098
Date    TT    R. A. (2000) Decl.     Delta      r     Elong.  Phase     V
2008 06 03    20 45.41   +01 37.4    0.0230   1.025   116.7    62.1    18.4
2008 06 05    19 33.25   +01 39.4    0.0275   1.034   134.1    44.8    18.3
2008 06 07    18 44.22   +01 32.1    0.0338   1.043   145.1    33.8    18.4
2008 06 09    18 11.50   +01 21.7    0.0412   1.052   151.4    27.5    18.7
2008 06 11    17 49.01   +01 10.1    0.0493   1.060   154.6    24.3    19.0
2008 06 13    17 32.92   +00 58.1    0.0578   1.069   155.8    23.0    19.3
2008 06 15    17 21.02   +00 45.6    0.0665   1.077   155.7    22.8    19.7
2008 06 17    17 11.96   +00 32.7    0.0756   1.085   154.9    23.4    20.0
2008 06 19    17 04.93   +00 19.3    0.0848   1.093   153.7    24.3    20.3
2008 06 21    16 59.38   +00 05.3    0.0942   1.101   152.3    25.4    20.5
2008 06 23    16 54.97   -00 09.3    0.104    1.108   150.8    26.6    20.8
2008 06 25    16 51.45   -00 24.5    0.114    1.115   149.2    27.8    21.0
2008 06 27    16 48.65   -00 40.3    0.123    1.123   147.6    29.1    21.3
2008 06 29    16 46.45   -00 56.7    0.133    1.130   145.9    30.3    21.5
2008 07 01    16 44.76   -01 13.6    0.144    1.137   144.3    31.5    21.7
2008 07 03    16 43.51   -01 31.1    0.154    1.143   142.7    32.6    21.9

Sonia Keys                   (C) Copyright 2008 MPC           M.P.E.C. 2008-L22

Read MPEC 2008-L21 Read MPEC 2008-L23


Our Web policy. Index to the CBAT/MPC/ICQ pages.


Valid HTML 4.01!